Location: Bykoš
(49.8821°N, 14.0662°E)
Time: 09:01:36
(UTC+00:00)

Daily predictions for brighter satellites

Satellite Brightness Start Highest point End
(mag) Time Altitude Azimuth Time Altitude Azimuth Time Altitude Azimuth
CZ-4C R/B 2.7 16:42:08 10° S 16:45:39 27° ESE 16:49:53 10° ENE
Meteor 2-21 Rocket 4.5 16:40:06 10° S 16:46:17 77° E 16:52:31 10° NNE
Cosmos 2173 Rocket 4.1 16:40:01 10° N 16:46:21 88° W 16:52:35 10° S
Radarsat Rocket 4.4 16:41:01 10° SE 16:46:29 43° ENE 16:52:21 10° N
Lacrosse 5 rocket 1.0 16:47:40 10° SW 16:51:05 64° SE 16:54:38 10° ENE
NOSS 0 Rocket 4.2 16:45:59 10° NNW 16:52:04 49° NE 16:58:06 10° SE
Cosmos 2100 Rocket 4.3 16:46:24 10° NNW 16:52:42 78° W 16:58:52 10° S
Cosmos 489 Rocket 4.5 16:46:58 10° SSW 16:53:08 74° ESE 16:59:21 10° NNE
Cosmos 2151 Rocket 3.9 16:49:03 10° N 16:53:23 44° ENE 16:57:40 10° SSE
SAR-Lupe-1 4.1 16:49:58 10° SSE 16:53:28 55° ENE 16:56:59 10° N
Meteor 1-21 Rocket 4.3 16:49:15 10° S 16:55:06 71° E 17:01:01 10° NNE
SJ-6F 4.3 16:51:34 10° SSE 16:55:31 79° ENE 16:59:28 10° NNW
BlueWalker 3 4.3 16:53:31 10° W 16:56:23 23° SW 16:59:14 10° SSE
Cosmos 2082 Rocket 4.3 16:52:41 10° W 16:56:40 19° NW 17:00:41 10° N
CARTOSAT-1 4.2 16:55:25 10° SE 16:59:08 32° ENE 17:02:53 10° N
USA 267 3.4 16:55:17 10° ENE 17:01:50 76° NNW 17:08:22 10° WSW
Cosmos 1864 Rocket 4.5 16:56:25 10° N 17:02:34 88° E 17:08:43 10° S
Cosmos 1356 Rocket 3.4 16:59:00 10° N 17:02:50 50° ENE 17:06:41 10° SSE
Cosmos 1607 4.2 16:57:08 10° SSW 17:02:59 50° ESE 17:08:55 10° NE
Cosmos 2297 Rocket 3.3 17:01:35 10° SSE 17:05:48 22° E 17:10:02 10° NE
USA 290 2.4 17:03:20 10° S 17:06:26 50° ESE 17:09:33 10° NE
Cosmos 1441 Rocket 4.0 17:03:15 10° SSW 17:06:30 46° WNW 17:09:45 10° N
In-Cosmos 22 Rocket 4.4 17:01:27 10° SSW 17:06:56 77° WNW 17:12:37 10° N
SAR-Lupe-5 4.3 17:06:47 10° NNE 17:09:22 75° WNW 17:11:50 10° SSW
Cosmos 1814 Rocket 4.0 17:04:16 10° S 17:09:28 63° ESE 17:14:40 10° NNE
SAR-Lupe-4 3.5 17:06:01 10° SSE 17:09:35 88° ENE 17:13:11 10° NNW
Cosmos 1125 Rocket 3.7 17:08:02 10° NNW 17:13:03 48° ENE 17:18:04 10° SE
Cosmos 1455 Rocket 4.0 17:10:15 10° NNE 17:13:49 25° ENE 17:17:23 10° SE
Cosmos 2221 Rocket 4.0 17:15:34 10° SSE 17:19:41 39° E 17:23:53 10° NNE
YAOGAN 1 2.4 17:16:28 10° SSE 17:20:43 81° ENE 17:24:59 10° NNW
Cosmos 2123 Rocket 4.2 17:15:41 10° SSW 17:22:00 79° W 17:28:20 10° N
Okean 2 Rocket 3.0 17:18:16 10° N 17:22:39 64° ENE 17:27:00 10° SSE
NOAA 6 4.1 17:18:39 10° SSE 17:23:41 59° ENE 17:28:46 10° N
NOSS 3-3 (C) 4.1 17:18:59 10° S 17:23:52 43° ESE 17:29:14 12° NE
Spot 4 Rocket 3.9 17:20:50 10° SSE 17:25:55 75° ENE 17:31:03 10° NNW
Okean 1 Rocket 3.0 17:21:46 10° N 17:26:09 60° ENE 17:30:28 10° SSE
COSMOS 2428 2.8 17:22:48 10° NNW 17:28:34 85° WSW 17:34:17 10° SSE
SL-19 R/B 4.4 17:25:17 10° SSE 17:31:26 70° ENE 17:37:21 10° NNW
Sich 1 Rocket 3.6 17:27:40 10° N 17:32:13 66° ENE 17:36:45 10° SSE
Cosmos 1980 3.8 17:26:44 10° NNW 17:32:19 54° NE 17:37:50 10° SE
Terra 3.9 17:33:16 10° NE 17:33:16 10° NE 17:33:34 10° NE
ARIANE 5 R/B 4.2 17:27:58 10° SSW 17:32:43 38° W 17:37:27 10° NNW
Cosmos 158 Rocket 3.8 17:32:38 10° SSW 17:37:30 84° WNW 17:42:24 10° NNE
Aureole 3 Rocket 2.8 17:33:21 10° N 17:37:42 55° ENE 17:41:04 10° SSE
Cosmos 2237 Rocket 2.3 17:32:21 10° NNW 17:37:56 55° NE 17:43:32 10° SE
ATLAS 5 CENTAUR R/B 3.3 17:35:29 10° WNW 17:39:29 36° SW 17:44:19 10° S
SeaSat 1 4.2 17:35:04 10° S 17:39:31 35° WSW 17:44:00 10° NW
Cosmos 1378 Rocket 4.1 17:36:16 10° SSW 17:40:31 60° WNW 17:44:48 10° N
Resurs 01 Rocket 1.6 17:36:42 10° SSE 17:41:02 62° ENE 17:45:23 10° N
SKYMED 2 4.0 17:38:19 10° N 17:42:38 64° WNW 17:46:55 10° SSW
ARIANE 6 FM1 Upper Stage 4.2 17:40:19 10° NNW 17:43:11 19° NNE 17:44:14 17° NE
GP-B 4.4 17:40:10 10° SSW 17:44:19 43° W 17:48:30 10° NNW
Cosmos 2346 Rocket 4.4 17:39:21 10° S 17:45:34 72° E 17:51:49 10° NNE
COSMO-SKYMED 1 2.3 17:42:50 10° NNE 17:46:59 87° ESE 17:51:06 10° SSW
Cosmos 2228 3.7 17:45:10 10° N 17:48:52 30° ENE 17:49:16 30° E
PSLV R/B 3.6 17:46:47 10° S 17:50:55 77° WSW 17:55:02 10° NNW
Cosmos 2150 Rocket 4.5 17:46:31 10° NNW 17:51:22 38° ENE 17:53:31 26° ESE
NOSS 3-3 (A) 3.6 17:47:26 10° SSW 17:52:36 76° SE 17:57:36 16° NE
Cosmos 1447 Rocket 4.4 17:47:49 10° S 17:53:55 75° E 18:00:04 10° NNE
USA 306 2.4 17:52:34 10° WNW 17:55:03 35° SW 17:55:03 35° SW
Cosmos 1025 Rocket 3.3 17:54:32 10° SSW 17:58:49 70° W 18:03:09 10° N
Cosmos 2285 Rocket 4.0 17:53:12 10° NNW 17:59:41 89° WSW 18:06:05 10° SSE
SL-16 R/B 3.0 17:56:19 10° NNW 18:01:18 30° NE 18:02:26 28° ENE
Cosmos 1891 Rocket 4.5 17:55:24 10° N 18:01:49 77° E 18:08:17 10° SSE
Cosmos 1375 Rocket 4.4 17:57:18 10° SSW 18:03:41 81° SE 18:09:12 15° NE
Cosmos 2227 Rocket 3.2 17:59:56 10° SSE 18:03:35 26° ESE 18:03:35 26° ESE
SJ-6B 2.3 18:05:12 16° SSE 18:07:51 84° ENE 18:11:19 10° NNW
SPOT 5 3.2 18:08:21 36° ESE 18:09:40 45° ENE 18:14:26 10° N
NOSS 3-4 (A) 3.7 18:03:45 10° NW 18:10:20 73° NE 18:15:10 25° SE
NOSS 3-4 (C) 3.7 18:04:00 10° NW 18:10:36 72° NE 18:15:23 25° SE
Cosmos 2034 Rocket 4.2 18:10:12 10° N 18:16:05 44° ENE 18:18:04 34° ESE
Cosmos 1072 Rocket 4.4 18:11:44 10° N 18:18:00 70° ENE 18:24:09 10° SSE
Cosmos 1513 Rocket 4.4 18:12:05 10° N 18:18:23 88° E 18:24:45 10° S
CZ-4 R/B 3.1 18:28:09 19° N 18:28:09 19° N 18:29:24 10° N
CZ-4B R/B 3.8 18:26:45 35° NE 18:26:45 35° NE 18:30:56 10° N
ATLAS 2AS CENTAUR R/B 4.1 18:21:21 10° WNW 18:27:08 27° NNW 18:31:15 16° NE
Lacrosse 5 rocket 2.1 18:24:51 10° W 18:28:07 34° NNW 18:28:21 34° N
CZ-4B DEB 4.2 18:29:55 49° ESE 18:30:55 56° ENE 18:36:15 10° N
Meteor 1-31 Rocket 4.1 18:32:59 26° N 18:32:59 26° N 18:34:36 10° N
ADEOS 4.2 18:32:00 38° NE 18:32:00 38° NE 18:36:00 10° N
CZ-4C R/B 2.4 18:29:00 10° WSW 18:33:21 54° NW 18:36:09 27° NNE
Feng Yun 1-1 Rocket 4.3 18:36:41 52° ESE 18:37:39 58° ENE 18:43:26 10° N
USA 267 3.8 18:41:48 32° NE 18:44:28 49° N 18:50:43 10° WNW
Cosmos 1464 Rocket 4.0 18:39:44 10° N 18:46:09 83° W 18:52:28 10° S
CSL-04 Debris 4.0 18:44:38 43° SSE 18:46:32 86° ENE 18:52:00 10° NNW
ERS-1 Rocket 4.0 18:48:49 33° NNE 18:48:49 33° NNE 18:51:48 10° N
Cosmos 2297 Rocket 2.4 18:43:37 10° SW 18:49:16 71° WNW 18:52:38 25° NNE
CSL-04 Rocket 3.5 18:47:26 39° S 18:49:29 85° WSW 18:54:48 10° NNW
Cosmos 1570 Rocket 4.1 18:44:52 10° SSW 18:50:08 75° WNW 18:52:48 30° NNE
Cosmos 2344 3.7 18:44:11 10° S 18:51:12 46° SE 18:51:12 46° SE
Cosmos 1455 Rocket 4.4 18:47:39 10° NNW 18:51:37 37° W 18:55:34 10° SSW
Cosmos 1975 Rocket 4.3 18:48:18 10° SSW 18:50:38 31° SSW 18:50:38 31° SSW
Cosmos 1943 4.4 18:47:51 10° NNW 18:51:36 27° NNE 18:51:36 27° NNE
DNEPR-1 R/B 3.8 18:49:13 10° NW 18:54:03 90° NE 18:54:13 85° SE
PAYLOAD B 4.1 19:05:27 87° NE 19:05:27 87° NE 19:11:04 10° NNW
Cosmos 2208 Rocket 4.1 19:02:06 10° SSW 19:07:19 74° WNW 19:07:29 74° NW
Terra 3.6 19:11:53 22° N 19:11:53 22° N 19:13:37 10° N
Resurs 01 Rocket 4.4 19:14:59 10° SW 19:17:49 17° W 19:20:40 10° NW
Cosmos 2237 Rocket 3.9 19:16:51 10° NW 19:21:41 29° WSW 19:25:52 13° SSW
SL-16 R/B 3.1 19:40:13 10° NW 19:44:20 46° WNW 19:44:20 46° WNW
Cosmos 2227 Rocket 3.7 19:42:41 10° SW 19:45:30 30° SW 19:45:30 30° SW
ATLAS 2AS CENTAUR R/B 4.2 20:14:19 10° NW 20:18:40 26° N 20:18:40 26° N
CZ-4C R/B 4.3 20:18:43 10° WNW 20:21:07 21° NW 20:21:07 21° NW
USA 267 4.3 20:29:08 39° NW 20:29:08 39° NW 20:33:17 10° WNW
Cosmos 2297 Rocket 4.5 20:30:22 10° W 20:34:21 19° NW 20:34:29 19° NW
